Weather History for KESC - April, 2013

Change the Weather History Date:

Friday, April 12, 2013

  Actual Average Record
Temperature  
Mean Temperature 29 °F -  
Max Temperature 32 °F 44 °F 66 °F (2006)
Min Temperature 26 °F 29 °F 16 °F (1950)
Degree Days  
Heating Degree Days 36    
Moisture  
Dew Point 25 °F    
Average Humidity 84    
Maximum Humidity 93    
Minimum Humidity 80    
Precipitation  
Precipitation 0.02 in - - ()
Sea Level Pressure  
Sea Level Pressure 29.71 in    
Wind  
Wind Speed 12 mph (NE)    
Max Wind Speed 23 mph    
Max Gust Speed 30 mph    
Visibility 3 miles    
Events      
Averages and records for this station are not official NWS values.
T = Trace of Precipitation, MM = Missing Value Source: NWS Daily Summary

Daily Weather History Graph

Daily Weather History Graph

Search for Another Location

Airport or City:

Trip Planner

Search our weather history database for the weather conditions in past years. The results will help you decide how hot, cold, wet, or windy it might be!

Date:

Astronomy

Apr. 12, 2013 Rise Set
Actual Time 7:07 AM EDT 8:31 PM EDT
Civil Twilight 6:36 AM EDT 9:02 PM EDT
Nautical Twilight 5:59 AM EDT 9:39 PM EDT
Astronomical Twilight 5:19 AM EDT 10:19 PM EDT
Moon 8:10 AM EDT (4/12) 11:09 PM EDT (4/12)
Length of Visible Light 14h 25m
Length of Day
13h 23m
Waxing Crescent, 5% of the Moon is Illuminated
Apr 12
Waxing Crescent
Apr 18
First Quarter
Apr 25
Full
May 2
Last Quarter
May 9
New

Hourly Weather History & Observations

Time (EDT) Temp. Windchill Dew Point Humidity Pressure Visibility Wind Dir Wind Speed Gust Speed Precip Events Conditions
12:15 AM 28.4 °F 17.5 °F 24.8 °F 86% 29.80 in 1.5 mi ENE 13.8 mph 29.9 mph N/A   Overcast
12:35 AM 28.4 °F 15.4 °F 24.8 °F 86% 29.80 in 1.2 mi East 19.6 mph 29.9 mph N/A   Overcast
12:55 AM 28.4 °F 16.2 °F 24.8 °F 86% 29.80 in 1.0 mi ENE 17.3 mph 26.5 mph N/A   Overcast
1:15 AM 28.4 °F 15.4 °F 24.8 °F 86% 29.80 in 1.0 mi East 19.6 mph 27.6 mph N/A   Overcast
1:35 AM 28.4 °F 15.8 °F 24.8 °F 86% 29.80 in 1.2 mi East 18.4 mph 26.5 mph N/A   Overcast
1:55 AM 28.4 °F 14.7 °F 24.8 °F 86% 29.80 in 1.2 mi East 21.9 mph 27.6 mph N/A   Overcast
2:15 AM 28.4 °F 15.4 °F 24.8 °F 86% 29.79 in 1.0 mi East 19.6 mph 28.8 mph 0.01 in   Overcast
2:35 AM 28.4 °F 14.4 °F 24.8 °F 86% 29.77 in 1.2 mi East 23.0 mph 29.9 mph 0.01 in   Overcast
2:55 AM 28.4 °F 15.4 °F 24.8 °F 86% 29.75 in 1.0 mi ENE 19.6 mph 27.6 mph 0.01 in   Overcast
3:15 AM 28.4 °F 15.8 °F 24.8 °F 86% 29.75 in 1.8 mi ENE 18.4 mph 21.9 mph N/A   Overcast
3:35 AM 28.4 °F 16.2 °F 24.8 °F 86% 29.74 in 1.0 mi ENE 17.3 mph 27.6 mph N/A   Overcast
3:55 AM 28.4 °F 15.4 °F 24.8 °F 86% 29.73 in 2.5 mi East 19.6 mph 25.3 mph N/A   Overcast
4:15 AM 28.4 °F 15.8 °F 23.0 °F 80% 29.73 in 3.0 mi ENE 18.4 mph 23.0 mph N/A   Overcast
4:35 AM 28.4 °F 16.6 °F 23.0 °F 80% 29.74 in 4.0 mi ENE 16.1 mph 19.6 mph N/A   Overcast
4:55 AM 28.4 °F 16.6 °F 23.0 °F 80% 29.73 in 3.0 mi East 16.1 mph - N/A   Overcast
5:15 AM 28.4 °F 16.6 °F 23.0 °F 80% 29.73 in 2.5 mi ENE 16.1 mph 19.6 mph N/A   Overcast
5:35 AM 28.4 °F 18.5 °F 23.0 °F 80% 29.73 in 1.8 mi ENE 11.5 mph 18.4 mph N/A   Overcast
5:55 AM 28.4 °F 18.5 °F 23.0 °F 80% 29.73 in 1.5 mi ENE 11.5 mph - N/A   Overcast
6:15 AM 28.4 °F 16.6 °F 24.8 °F 86% 29.72 in 1.5 mi ENE 16.1 mph 20.7 mph N/A   Overcast
6:35 AM 26.6 °F 16.2 °F 23.0 °F 86% 29.71 in 1.2 mi NE 11.5 mph 16.1 mph N/A   Overcast
6:55 AM 26.6 °F 16.8 °F 23.0 °F 86% 29.69 in 1.8 mi NE 10.4 mph - N/A   Overcast
7:15 AM 26.6 °F 15.7 °F 21.2 °F 80% 29.68 in 1.2 mi NE 12.7 mph - N/A   Overcast
7:35 AM 26.6 °F 16.8 °F 21.2 °F 80% 29.69 in 2.0 mi NE 10.4 mph 18.4 mph N/A   Overcast
7:55 AM 26.6 °F 16.2 °F 21.2 °F 80% 29.69 in 3.0 mi NE 11.5 mph - N/A   Overcast
8:15 AM 26.6 °F 16.8 °F 21.2 °F 80% 29.68 in 5.0 mi NE 10.4 mph - N/A   Overcast
8:35 AM 26.6 °F 16.8 °F 21.2 °F 80% 29.68 in 1.2 mi NE 10.4 mph - N/A   Overcast
8:55 AM 26.6 °F 16.2 °F 21.2 °F 80% 29.68 in 1.2 mi NE 11.5 mph 17.3 mph N/A   Overcast
9:15 AM 26.6 °F 16.8 °F 21.2 °F 80% 29.68 in 1.0 mi NE 10.4 mph - N/A   Overcast
9:35 AM 26.6 °F 16.8 °F 21.2 °F 80% 29.68 in 1.0 mi NE 10.4 mph - N/A   Overcast
9:55 AM 26.6 °F 16.2 °F 21.2 °F 80% 29.68 in 1.2 mi NE 11.5 mph 16.1 mph N/A   Overcast
10:15 AM 26.6 °F 17.5 °F 21.2 °F 80% 29.67 in 1.0 mi NE 9.2 mph - N/A   Overcast
10:55 AM 26.6 °F 16.8 °F 23.0 °F 86% 29.66 in 1.2 mi NE 10.4 mph 16.1 mph N/A   Overcast
11:15 AM 26.6 °F 16.8 °F 23.0 °F 86% 29.66 in 1.2 mi NE 10.4 mph - N/A   Overcast
11:35 AM 28.4 °F 18.0 °F 23.0 °F 80% 29.66 in 1.5 mi NE 12.7 mph 18.4 mph N/A   Overcast
11:55 AM 28.4 °F 19.7 °F 23.0 °F 80% 29.66 in 1.5 mi NE 9.2 mph - N/A   Overcast
12:15 PM 28.4 °F 19.1 °F 23.0 °F 80% 29.66 in 1.0 mi NE 10.4 mph 17.3 mph N/A   Overcast
12:35 PM 28.4 °F 19.7 °F 24.8 °F 86% 29.66 in 1.0 mi NE 9.2 mph - N/A   Overcast
12:55 PM 28.4 °F 19.7 °F 24.8 °F 86% 29.66 in 1.2 mi NE 9.2 mph - N/A   Overcast
1:15 PM 28.4 °F 20.4 °F 24.8 °F 86% 29.66 in 1.2 mi NE 8.1 mph - N/A   Overcast
1:35 PM 30.2 °F 21.9 °F 24.8 °F 80% 29.66 in 1.2 mi NE 9.2 mph - N/A   Overcast
1:55 PM 30.2 °F 21.3 °F 24.8 °F 80% 29.65 in 1.8 mi NE 10.4 mph - N/A   Overcast
2:15 PM 30.2 °F 21.9 °F 24.8 °F 80% 29.65 in 1.0 mi ENE 9.2 mph - N/A   Overcast
2:35 PM 30.2 °F 21.3 °F 24.8 °F 80% 29.65 in 2.5 mi NE 10.4 mph - N/A   Overcast
2:55 PM 30.2 °F 23.4 °F 24.8 °F 80% 29.65 in 1.8 mi NE 6.9 mph - N/A   Overcast
3:15 PM 30.2 °F 21.9 °F 24.8 °F 80% 29.66 in 1.8 mi NE 9.2 mph - N/A   Overcast
3:35 PM 30.2 °F 23.4 °F 26.6 °F 86% 29.66 in 3.0 mi NNE 6.9 mph - N/A   Overcast
3:55 PM 30.2 °F 22.6 °F 26.6 °F 86% 29.66 in 1.2 mi NE 8.1 mph - N/A   Overcast
4:15 PM 30.2 °F 25.4 °F 26.6 °F 86% 29.66 in 2.5 mi NE 4.6 mph - N/A   Mostly Cloudy
4:35 PM 30.2 °F 24.3 °F 26.6 °F 86% 29.67 in 1.0 mi NE 5.8 mph - N/A   Overcast
4:55 PM 32.0 °F 25.6 °F 26.6 °F 80% 29.67 in 3.0 mi NNE 6.9 mph - N/A   Overcast
5:15 PM 30.2 °F 25.4 °F 26.6 °F 86% 29.67 in 2.0 mi NNE 4.6 mph - N/A   Overcast
5:35 PM 30.2 °F 26.7 °F 26.6 °F 86% 29.68 in 2.5 mi NE 3.5 mph - N/A   Overcast
5:55 PM 30.2 °F 25.4 °F 26.6 °F 86% 29.68 in 1.2 mi North 4.6 mph - N/A   Overcast
6:15 PM 30.2 °F 23.4 °F 26.6 °F 86% 29.69 in 1.8 mi North 6.9 mph - N/A   Overcast
6:35 PM 30.2 °F 25.4 °F 26.6 °F 86% 29.70 in 1.5 mi NNE 4.6 mph - N/A   Overcast
6:55 PM 32.0 °F 27.5 °F 26.6 °F 80% 29.70 in 1.8 mi NW 4.6 mph - 0.01 in   Overcast
7:15 PM 30.2 °F 25.4 °F 26.6 °F 86% 29.71 in 1.5 mi NNW 4.6 mph - N/A   Overcast
7:35 PM 30.2 °F 26.7 °F 26.6 °F 86% 29.71 in 1.8 mi North 3.5 mph - N/A   Overcast
7:55 PM 30.2 °F 25.4 °F 26.6 °F 86% 29.71 in 2.5 mi North 4.6 mph - N/A   Overcast
8:15 PM 30.2 °F 26.7 °F 26.6 °F 86% 29.71 in 4.0 mi North 3.5 mph - N/A   Overcast
8:35 PM 30.2 °F - 26.6 °F 86% 29.71 in 7.0 mi Calm Calm - N/A   Overcast
8:55 PM 30.2 °F - 24.8 °F 80% 29.71 in 9.0 mi Calm Calm - N/A   Overcast
9:15 PM 30.2 °F - 26.6 °F 86% 29.71 in 10.0 mi Calm Calm - N/A   Overcast
9:35 PM 30.2 °F - 26.6 °F 86% 29.72 in 8.0 mi Calm Calm - N/A   Overcast
9:55 PM 28.4 °F - 26.6 °F 93% 29.72 in 8.0 mi Calm Calm - N/A   Overcast
10:15 PM 28.4 °F - 26.6 °F 93% 29.73 in 10.0 mi Calm Calm - N/A   Overcast
10:35 PM 28.4 °F - 26.6 °F 93% 29.73 in 10.0 mi Calm Calm - N/A   Overcast
10:55 PM 28.4 °F - 26.6 °F 93% 29.74 in 8.0 mi Calm Calm - N/A   Overcast
11:15 PM 28.4 °F - 24.8 °F 86% 29.73 in 9.0 mi Calm Calm - N/A   Overcast
11:35 PM 28.4 °F - 26.6 °F 93% 29.72 in 10.0 mi Calm Calm - N/A   Overcast
11:55 PM 28.4 °F - 26.6 °F 93% 29.72 in 10.0 mi Calm Calm - N/A   Overcast